User: anonymous   Login
Location: Unspecified
(0.0000°N, 0.0000°E)
Time: 22:30:06
(UTC+00:00)
Language:

AGILE - Orbit

View from above orbital plane
View from above orbital plane
View from above satellite
View from above satellite

Ground track
Ground track

The orbit data is extracted from the following two-line orbital elements,

1 31135U 07013A   17085.12489081 +.00003223 +00000-0 +71441-4 0  9999
2 31135 002.4682 035.6786 0012765 148.1168 211.9659 15.29404774550974
Epoch (UTC): 26 March 2017 02:59:50
Eccentricity: 0.0012765
inclination: 2.4682°
perigee height: 469 km
apogee height: 486 km
right ascension of ascending node: 35.6786°
argument of perigee: 148.1168°
revolutions per day: 15.29404774
mean anomaly at epoch: 211.9659°
orbit number at epoch: 55097

The dashed part of the orbit path shows where the satellite is in the earth's shadow,  

DLR